Flag for Denmark Weather past 2 weeks in Aarhus, Denmark

Now
59 °F

Passing clouds.


Feels Like: 57 °F
Forecast: 55 / 63 °F
Wind: 12 mph from West

Location: Tirstrup

Current Time: Sep 2, 2015 at 2:29:37 AM

Latest Report: Sep 2, 2015 at 1:50 AM


Visibility: N/A

Pressure: 29.71 "Hg

Humidity: 72%

Dew point: 50 °F

Location of AarhusLocation

Historic Weather in Aarhus — Graph

°F

Aarhus temperature yesterday

Maximum temperature yesterday: 66 °F (at 3:20 PM)
Minimum temperature yesterday: 59 °F (at 11:20 PM)
Average temperature yesterday: 63 °F

Past Weeks' High & Low Weather Summary

 TemperatureHumidityPressure
High77 °F (Aug 20, 3:50 PM)94% (Sep 1, 8:50 AM)30.36 "Hg (Sep 1, 8:50 AM)
Low50 °F (Aug 22, 6:20 AM)24% (Aug 22, 2:50 PM)29.62 "Hg (Aug 25, 4:20 AM)
Average64 °F66%30.01 "Hg
* Reported Aug 18 1:20 AM — Sep 2 12:50 AM, Aarhus, Weather by CustomWeather, © 2015

Note: Actual official high and low records may vary slightly from our data, if they occured in-between our weather recording intervals... More about our weather records

Advertising

Aarhus weather history for previous 24 hours

 ConditionsComfort  
Time TempWeatherWind HumidityBarometerVisibility
12:50 AM
Wed, Sep 2
59 °FPassing clouds.13 mph72%29.68 "HgN/A
11:20 PM
Tue, Sep 1
59 °FPassing clouds.14 mph77%29.68 "HgN/A
10:50 PM61 °FPassing clouds.14 mph72%29.68 "HgN/A
10:20 PM61 °FOvercast.10 mph77%29.65 "HgN/A
9:50 PM61 °FPassing clouds.9 mph77%29.65 "HgN/A
9:20 PM61 °FPartly cloudy.9 mph77%29.65 "HgN/A
8:50 PM61 °FPartly sunny.12 mph77%29.65 "HgN/A
8:20 PM63 °FPartly sunny.12 mph77%29.65 "HgN/A
7:50 PM63 °FMostly cloudy.10 mph77%29.65 "HgN/A
7:20 PM63 °FPartly sunny.7 mph83%29.65 "HgN/A
6:50 PM63 °FLow clouds.9 mph83%29.62 "HgN/A
6:20 PM63 °FSprinkles. Partly sunny.9 mph88%29.62 "HgN/A
5:20 PM66 °FPartly sunny.6 mph83%29.62 "HgN/A
4:50 PM66 °FBroken clouds.2 mph83%29.62 "HgN/A
4:20 PM66 °FPartly sunny.2 mph83%29.62 "HgN/A
3:50 PM66 °FPartly sunny.2 mph83%29.62 "Hg4 mi
3:20 PM66 °FFog.2 mph83%29.62 "Hg2 mi
2:50 PM64 °FLow clouds.3 mph88%29.62 "Hg3 mi
2:20 PM64 °FLow clouds.2 mph88%29.62 "Hg4 mi
1:50 PM64 °FLow clouds.3 mph88%29.62 "Hg5 mi
1:20 PM64 °FPartly sunny.2 mph88%29.62 "Hg5 mi
12:50 PM64 °FLow clouds.2 mph88%29.62 "Hg4 mi
12:20 PM64 °FLow clouds.2 mph83%29.62 "Hg4 mi
11:50 AM64 °FLow clouds.2 mph83%29.62 "HgN/A
11:20 AM64 °FLow clouds.1 mph83%29.62 "HgN/A
10:50 AM64 °FLow clouds.1 mph83%29.62 "HgN/A
10:20 AM64 °FLow clouds.2 mph83%29.62 "Hg4 mi
9:50 AM64 °FLow clouds.3 mph88%29.62 "HgN/A
9:20 AM64 °FLow clouds.2 mph88%29.62 "Hg3 mi
8:50 AM63 °FFog.2 mph94%29.62 "Hg2 mi
8:20 AM63 °FLow clouds.1 mph88%29.62 "Hg3 mi
7:50 AM63 °FLow clouds.2 mph88%29.65 "Hg4 mi
7:20 AM63 °FLow clouds.2 mph88%29.65 "Hg4 mi
6:50 AM63 °FLow clouds.2 mph88%29.65 "Hg3 mi
5:20 AM61 °FLow clouds.1 mph88%29.68 "Hg5 mi
4:50 AM61 °FLow clouds.5 mph88%29.65 "Hg6 mi
4:20 AM61 °FLow clouds.5 mph88%29.68 "HgN/A
3:50 AM61 °FLow clouds.6 mph88%29.68 "HgN/A
3:20 AM61 °FSprinkles. Low clouds.7 mph88%29.68 "HgN/A
2:50 AM61 °FLow clouds.10 mph88%29.68 "HgN/A
2:20 AM61 °FPassing clouds.10 mph88%29.68 "HgN/A
Weather by CustomWeather, © 2015

See weather overviewHow to use our weather pages